Mackinac Island, MI

1:18 AM EDT on August 25, 2016 (GMT -0400)
Mackinac Island

Weather History for KMCD - November, 2013

Change the Weather History Date:

Thursday, November 21, 2013

  Actual Average Record
Temperature  
Mean Temperature 39 °F -  
Max Temperature 41 °F 38 °F 56 °F (1990)
Min Temperature 37 °F 29 °F 9 °F (1987)
Degree Days  
Heating Degree Days 26    
Moisture  
Dew Point 34 °F    
Average Humidity 84    
Maximum Humidity 99    
Minimum Humidity 73    
Precipitation  
Precipitation 0.01 in - - ()
Sea Level Pressure  
Sea Level Pressure 30.17 in    
Wind  
Wind Speed 5 mph (SSE)    
Max Wind Speed 8 mph    
Max Gust Speed -    
Visibility 8 miles    
Events Rain    
Averages and records for this station are not official NWS values.
T = Trace of Precipitation, MM = Missing Value Source: NWS Daily Summary

Daily Weather History Graph

Daily Weather History Graph

Search for Another Location

Airport or City:

Trip Planner

Search our weather history database for the weather conditions in past years. The results will help you decide how hot, cold, wet, or windy it might be!

Date:

Astronomy

Nov. 21, 2013 Rise Set
Actual Time 7:47 AM EST 5:01 PM EST
Civil Twilight 7:14 AM EST 5:34 PM EST
Nautical Twilight 6:37 AM EST 6:10 PM EST
Astronomical Twilight 6:02 AM EST 6:46 PM EST
Moon 8:39 PM EST (11/21) 10:51 AM EST (11/21)
Length of Visible Light 10h 20m
Length of Day
9h 14m
Waning Gibbous, 85% of the Moon is Illuminated
Nov 21
Waning Gibbous
Nov 25
Last Quarter
Dec 2
New
Dec 9
First Quarter
Dec 17
Full

Hourly Weather History & Observations

Time (EST) Temp. Windchill Dew Point Humidity Pressure Visibility Wind Dir Wind Speed Gust Speed Precip Events Conditions
12:15 AM 37.6 °F 32.3 °F 30.6 °F 76% 30.21 in 10.0 mi SSE 6.9 mph - N/A   Scattered Clouds
12:35 AM 37.4 °F 32.1 °F 30.2 °F 75% 30.20 in 10.0 mi SSE 6.9 mph - N/A   Mostly Cloudy
12:55 AM 37.4 °F 32.8 °F 30.2 °F 75% 30.20 in 10.0 mi SSE 5.8 mph - N/A   Overcast
1:15 AM 37.4 °F 32.1 °F 30.2 °F 75% 30.20 in 10.0 mi SSE 6.9 mph - N/A   Overcast
1:35 AM 37.4 °F 32.8 °F 29.8 °F 74% 30.20 in 10.0 mi SSE 5.8 mph - N/A   Scattered Clouds
1:55 AM 37.2 °F 32.6 °F 29.8 °F 75% 30.19 in 10.0 mi SSE 5.8 mph - N/A   Clear
2:15 AM 37.4 °F 31.4 °F 29.8 °F 74% 30.19 in 10.0 mi SSE 8.1 mph - N/A   Scattered Clouds
2:35 AM 37.4 °F 32.8 °F 29.7 °F 74% 30.19 in 10.0 mi SE 5.8 mph - N/A   Overcast
2:55 AM 37.4 °F 32.8 °F 29.3 °F 73% 30.18 in 10.0 mi SE 5.8 mph - N/A   Overcast
3:15 AM 37.4 °F 33.8 °F 29.8 °F 74% 30.18 in 10.0 mi SSE 4.6 mph - N/A   Overcast
3:35 AM 37.6 °F 32.3 °F 30.2 °F 75% 30.18 in 10.0 mi SSE 6.9 mph - N/A   Overcast
3:55 AM 37.6 °F 32.3 °F 30.0 °F 74% 30.18 in 10.0 mi South 6.9 mph - N/A   Overcast
4:15 AM 37.6 °F 31.6 °F 30.2 °F 75% 30.17 in 10.0 mi SE 8.1 mph - N/A   Overcast
4:35 AM 37.4 °F 33.8 °F 30.0 °F 75% 30.17 in 10.0 mi South 4.6 mph - N/A   Overcast
4:55 AM 37.4 °F 32.1 °F 30.2 °F 75% 30.17 in 10.0 mi South 6.9 mph - N/A   Overcast
5:15 AM 37.4 °F 32.1 °F 30.6 °F 76% 30.16 in 10.0 mi SSE 6.9 mph - N/A   Overcast
5:35 AM 37.4 °F 31.4 °F 30.7 °F 77% 30.17 in 10.0 mi SSE 8.1 mph - N/A   Overcast
5:55 AM 37.6 °F 32.3 °F 30.6 °F 76% 30.17 in 10.0 mi SSE 6.9 mph - N/A   Overcast
6:15 AM 37.6 °F 33.1 °F 30.2 °F 75% 30.17 in 10.0 mi SSE 5.8 mph - N/A   Overcast
6:35 AM 37.6 °F 31.6 °F 30.2 °F 75% 30.16 in 10.0 mi South 8.1 mph - N/A   Overcast
6:55 AM 37.6 °F 31.6 °F 30.2 °F 75% 30.16 in 10.0 mi South 8.1 mph - N/A   Overcast
7:15 AM 37.8 °F 32.5 °F 30.4 °F 75% 30.16 in 10.0 mi South 6.9 mph - N/A   Mostly Cloudy
7:35 AM 37.9 °F 33.5 °F 30.6 °F 75% 30.17 in 10.0 mi South 5.8 mph - N/A   Overcast
7:55 AM 38.3 °F 33.9 °F 30.7 °F 74% 30.17 in 10.0 mi South 5.8 mph - N/A   Overcast
8:15 AM 38.3 °F 34.8 °F 31.1 °F 75% 30.17 in 10.0 mi SSE 4.6 mph - N/A   Overcast
8:35 AM 38.3 °F 33.9 °F 31.5 °F 76% 30.17 in 10.0 mi SSE 5.8 mph - N/A   Overcast
8:55 AM 38.3 °F 33.9 °F 32.0 °F 78% 30.17 in 10.0 mi South 5.8 mph - N/A   Overcast
9:15 AM 38.3 °F 33.9 °F 32.0 °F 78% 30.17 in 10.0 mi South 5.8 mph - N/A   Overcast
9:35 AM 38.3 °F 33.9 °F 32.0 °F 78% 30.17 in 10.0 mi SSE 5.8 mph - N/A   Overcast
9:55 AM 38.3 °F 34.8 °F 32.2 °F 79% 30.17 in 10.0 mi SSE 4.6 mph - N/A   Overcast
10:15 AM 37.9 °F 32.7 °F 32.5 °F 81% 30.18 in 10.0 mi SSE 6.9 mph - N/A   Overcast
10:35 AM 38.3 °F 33.2 °F 33.3 °F 82% 30.19 in 10.0 mi SSE 6.9 mph - N/A   Overcast
10:55 AM 38.3 °F 34.8 °F 33.4 °F 83% 30.19 in 10.0 mi South 4.6 mph - N/A   Overcast
11:15 AM 38.7 °F 34.3 °F 34.0 °F 83% 30.18 in 10.0 mi South 5.8 mph - N/A   Overcast
11:35 AM 39.2 °F 35.0 °F 34.3 °F 83% 30.17 in 10.0 mi SSW 5.8 mph - N/A   Overcast
11:55 AM 39.4 °F 37.2 °F 34.7 °F 83% 30.17 in 10.0 mi South 3.5 mph - N/A   Overcast
12:15 PM 39.6 °F 35.4 °F 34.9 °F 83% 30.17 in 10.0 mi SSW 5.8 mph - N/A   Overcast
12:35 PM 40.1 °F 36.9 °F 35.4 °F 83% 30.16 in 10.0 mi SSW 4.6 mph - N/A   Overcast
12:55 PM 40.1 °F - 35.6 °F 84% 30.16 in 10.0 mi Calm Calm - N/A   Overcast
1:15 PM 40.1 °F 38.0 °F 36.0 °F 85% 30.16 in 10.0 mi SSW 3.5 mph - N/A   Overcast
1:35 PM 40.3 °F - 36.1 °F 85% 30.15 in 10.0 mi Calm Calm - N/A   Overcast
1:55 PM 40.8 °F 37.8 °F 36.5 °F 85% 30.15 in 10.0 mi South 4.6 mph - N/A   Overcast
2:15 PM 41.0 °F 39.0 °F 36.7 °F 85% 30.15 in 10.0 mi South 3.5 mph - N/A   Overcast
2:35 PM 40.8 °F - 37.0 °F 86% 30.15 in 10.0 mi Calm Calm - N/A   Overcast
2:55 PM 41.0 °F - 37.0 °F 86% 30.15 in 10.0 mi Calm Calm - N/A   Overcast
3:15 PM 40.6 °F - 37.0 °F 87% 30.14 in 10.0 mi Calm Calm - N/A   Overcast
3:35 PM 40.6 °F 37.5 °F 37.0 °F 87% 30.14 in 10.0 mi SSE 4.6 mph - N/A   Overcast
3:55 PM 40.8 °F 37.8 °F 37.0 °F 86% 30.15 in 10.0 mi SSE 4.6 mph - N/A   Overcast
4:15 PM 41.0 °F 38.0 °F 37.0 °F 86% 30.16 in 10.0 mi South 4.6 mph - N/A   Overcast
4:35 PM 41.0 °F 38.0 °F 37.0 °F 86% 30.15 in 10.0 mi SSE 4.6 mph - N/A   Overcast
4:55 PM 40.6 °F 38.6 °F 37.4 °F 88% 30.16 in 7.0 mi SSE 3.5 mph - N/A   Overcast
5:15 PM 40.5 °F 38.4 °F 37.4 °F 89% 30.16 in 10.0 mi South 3.5 mph - N/A   Overcast
5:35 PM 40.5 °F 38.4 °F 37.4 °F 89% 30.16 in 10.0 mi SSE 3.5 mph - N/A   Overcast
5:55 PM 40.6 °F 38.6 °F 37.2 °F 88% 30.17 in 10.0 mi South 3.5 mph - N/A   Overcast
6:15 PM 41.0 °F - 37.6 °F 88% 30.17 in 7.0 mi Calm Calm - N/A   Overcast
6:35 PM 40.6 °F 38.6 °F 37.6 °F 89% 30.17 in 10.0 mi South 3.5 mph - N/A   Overcast
6:55 PM 40.3 °F - 37.8 °F 91% 30.17 in 4.0 mi Calm Calm - N/A   Overcast
7:16 PM 39.9 °F 37.8 °F 38.5 °F 95% 30.17 in 2.5 mi South 3.5 mph - N/A   Overcast
7:35 PM 39.7 °F 37.6 °F 38.8 °F 97% 30.17 in 3.0 mi South 3.5 mph - N/A   Overcast
7:55 PM 39.9 °F - 39.2 °F 97% 30.17 in 3.0 mi Calm Calm - N/A   Overcast
8:16 PM 39.7 °F - 39.2 °F 98% 30.16 in 1.8 mi Calm Calm - N/A   Overcast
8:35 PM 39.6 °F - 39.2 °F 99% 30.16 in 1.5 mi Calm Calm - N/A Rain Light Rain
8:55 PM 39.7 °F - 39.4 °F 99% 30.16 in 1.2 mi Calm Calm - N/A   Unknown
9:16 PM 39.9 °F - 39.4 °F 98% 30.17 in 1.2 mi Calm Calm - N/A   Overcast
9:35 PM 39.9 °F - 39.6 °F 99% 30.17 in 2.0 mi Calm Calm - N/A   Overcast
9:55 PM 39.6 °F 34.7 °F 39.2 °F 99% 30.16 in 2.0 mi North 6.9 mph - N/A   Overcast
10:16 PM 39.2 °F 35.9 °F 38.7 °F 98% 30.17 in 2.5 mi NNW 4.6 mph - N/A   Overcast
10:35 PM 38.8 °F 35.4 °F 38.5 °F 99% 30.17 in 3.0 mi North 4.6 mph - N/A Rain Light Rain
10:55 PM 38.8 °F 35.4 °F 38.5 °F 99% 30.17 in 3.0 mi NNW 4.6 mph - N/A Rain Light Rain
11:16 PM 38.7 °F 36.3 °F 38.3 °F 99% 30.16 in 3.0 mi NNW 3.5 mph - N/A Rain Light Rain
11:35 PM 38.5 °F 36.1 °F 38.3 °F 99% 30.16 in 3.0 mi NNW 3.5 mph - 0.01 in Rain Light Rain
11:55 PM 38.3 °F 34.8 °F 37.9 °F 99% 30.16 in 3.0 mi NNW 4.6 mph - 0.01 in Rain Light Rain